DLH731 EDDH-EDDF

Flight info

Callsign DLH731
Flight time 0h 47m
Altitude 30000
Route AMLUH2G/33 AMLUH M852 DENIX DCT RIMET/N0465F310 T157 KOKEB/N0426F230 T157 KERAX KERAX5A
Aircraft A321/M-SDE3FGHIRWY/LB1

Departure

Time 2026-05-05 12:47
Airport Hamburg Helmut Schmidt Airport (EDDH)

Arrival

Time 2026-05-05 13:35
Airport Frankfurt Main Airport (EDDF)
Time Latitude Longitude Altitude Speed Heading
2026-05-05 12:16 53.63358 10.00351 48 ft 0 kts 86°
2026-05-05 12:38 53.63358 10.00336 48 ft 4 kts 86°
2026-05-05 12:38 53.63356 10.00291 51 ft 4 kts 86°
2026-05-05 12:38 53.63356 10.00256 51 ft 4 kts 110°
2026-05-05 12:38 53.63370 10.00230 46 ft 4 kts 172°
2026-05-05 12:39 53.63388 10.00227 47 ft 0 kts 176°
2026-05-05 12:43 53.63380 10.00228 48 ft 2 kts 176°
2026-05-05 12:44 53.63364 10.00228 46 ft 3 kts 182°
2026-05-05 12:44 53.63339 10.00211 49 ft 5 kts 205°
2026-05-05 12:44 53.63304 10.00184 49 ft 7 kts 205°
2026-05-05 12:44 53.63250 10.00174 51 ft 9 kts 178°
2026-05-05 12:45 53.63179 10.00180 51 ft 11 kts 177°
2026-05-05 12:45 53.63099 10.00184 51 ft 12 kts 179°
2026-05-05 12:45 53.63023 10.00140 48 ft 12 kts 210°
2026-05-05 12:45 53.62951 10.00057 51 ft 13 kts 221°
2026-05-05 12:46 53.62899 9.99934 50 ft 13 kts 242°
2026-05-05 12:46 53.62862 9.99800 51 ft 12 kts 255°
2026-05-05 12:46 53.62902 9.99697 53 ft 11 kts 329°
2026-05-05 12:46 53.62988 9.99627 51 ft 25 kts 337°
2026-05-05 12:47 53.63378 9.99304 52 ft 97 kts 334°
2026-05-05 12:47 53.64165 9.98621 51 ft 155 kts 333°
2026-05-05 12:47 53.65223 9.97745 437 ft 167 kts 335°
2026-05-05 12:47 53.66230 9.96847 1154 ft 163 kts 335°
2026-05-05 12:48 53.67283 9.95940 1518 ft 180 kts 336°
2026-05-05 12:48 53.68484 9.95002 1756 ft 201 kts 345°
2026-05-05 12:48 53.69893 9.94666 2142 ft 208 kts
2026-05-05 12:48 53.71350 9.94699 2721 ft 210 kts
2026-05-05 12:49 53.72748 9.95358 3312 ft 213 kts 33°
2026-05-05 12:49 53.73738 9.97224 3945 ft 220 kts 67°
2026-05-05 12:49 53.74064 9.99779 4547 ft 226 kts 83°
2026-05-05 12:49 53.74157 10.02459 5120 ft 232 kts 97°
2026-05-05 12:50 53.73719 10.05127 5532 ft 245 kts 118°
2026-05-05 12:50 53.72837 10.07748 5772 ft 268 kts 121°
2026-05-05 12:50 53.71882 10.10554 6230 ft 280 kts 121°
2026-05-05 12:50 53.70908 10.13433 6832 ft 284 kts 121°
2026-05-05 12:51 53.69926 10.16347 7488 ft 287 kts 122°
2026-05-05 12:51 53.68702 10.19004 8127 ft 287 kts 139°
2026-05-05 12:51 53.67078 10.20941 8767 ft 287 kts 156°
2026-05-05 12:51 53.65202 10.22047 9419 ft 286 kts 168°
2026-05-05 12:52 53.63262 10.22917 9847 ft 290 kts 167°
2026-05-05 12:52 53.61316 10.23802 9930 ft 289 kts 167°
2026-05-05 12:52 53.59375 10.24691 9944 ft 289 kts 167°
2026-05-05 12:52 53.57376 10.25610 10023 ft 309 kts 167°
2026-05-05 12:53 53.55204 10.26605 10136 ft 329 kts 167°
2026-05-05 12:53 53.52964 10.27630 10269 ft 347 kts 167°
2026-05-05 12:53 53.50542 10.28737 10385 ft 364 kts 167°
2026-05-05 12:53 53.48045 10.29879 10508 ft 379 kts 167°
2026-05-05 12:54 53.42772 10.32291 10827 ft 403 kts 166°
2026-05-05 12:54 53.40052 10.33534 11248 ft 407 kts 167°
2026-05-05 12:54 53.37309 10.34776 11651 ft 410 kts 167°
2026-05-05 12:55 53.35443 10.35616 11940 ft 412 kts 167°
2026-05-05 12:55 53.31757 10.37261 12510 ft 416 kts 167°
2026-05-05 12:55 53.29867 10.38103 12795 ft 418 kts 167°
2026-05-05 12:55 53.27050 10.39364 13220 ft 420 kts 167°
2026-05-05 12:56 53.24226 10.40631 13235 ft 416 kts 166°
2026-05-05 12:56 53.21437 10.41884 13290 ft 415 kts 167°
2026-05-05 12:56 53.18652 10.43127 13866 ft 415 kts 167°
2026-05-05 12:56 53.15856 10.44371 14281 ft 417 kts 167°
2026-05-05 12:57 53.13006 10.45251 14652 ft 418 kts 176°
2026-05-05 12:57 53.10105 10.45324 15026 ft 418 kts 186°
2026-05-05 12:57 53.07198 10.44920 15407 ft 420 kts 187°
2026-05-05 12:57 53.04274 10.44511 15799 ft 423 kts 187°
2026-05-05 12:58 53.01332 10.44105 16181 ft 425 kts 187°
2026-05-05 12:58 52.98374 10.43702 16558 ft 428 kts 187°
2026-05-05 12:58 52.95391 10.43297 16940 ft 431 kts 187°
2026-05-05 12:58 52.92399 10.42889 17310 ft 433 kts 187°
2026-05-05 12:59 52.89385 10.42473 17673 ft 436 kts 187°
2026-05-05 12:59 52.86351 10.42054 18027 ft 438 kts 187°
2026-05-05 12:59 52.83306 10.41638 18349 ft 441 kts 187°
2026-05-05 13:00 52.77164 10.40806 18983 ft 444 kts 186°
2026-05-05 13:00 52.74083 10.40393 19349 ft 445 kts 187°
2026-05-05 13:01 52.64787 10.39150 19920 ft 447 kts 187°
2026-05-05 13:01 52.61688 10.38732 19914 ft 446 kts 187°
2026-05-05 13:01 52.58597 10.38313 19906 ft 447 kts 187°
2026-05-05 13:01 52.55500 10.37891 19908 ft 446 kts 187°
2026-05-05 13:02 52.52405 10.37473 19905 ft 445 kts 186°
2026-05-05 13:02 52.49323 10.37063 19898 ft 445 kts 186°
2026-05-05 13:02 52.46238 10.36654 19898 ft 445 kts 186°
2026-05-05 13:02 52.43083 10.36233 19897 ft 444 kts 186°
2026-05-05 13:03 52.40074 10.35831 19895 ft 445 kts 186°
2026-05-05 13:03 52.36993 10.35422 19893 ft 445 kts 186°
2026-05-05 13:03 52.33867 10.35012 19892 ft 444 kts 186°
2026-05-05 13:03 52.30787 10.34608 19875 ft 444 kts 186°
2026-05-05 13:04 52.27714 10.34198 19886 ft 443 kts 186°
2026-05-05 13:04 52.24636 10.33786 19889 ft 443 kts 186°
2026-05-05 13:04 52.21571 10.33378 19889 ft 442 kts 186°
2026-05-05 13:04 52.18506 10.32972 19874 ft 442 kts 186°
2026-05-05 13:05 52.15446 10.32568 19870 ft 441 kts 186°
2026-05-05 13:05 52.12380 10.32159 19874 ft 441 kts 186°
2026-05-05 13:05 52.09318 10.31755 19868 ft 441 kts 186°
2026-05-05 13:05 52.06254 10.31350 19862 ft 442 kts 186°
2026-05-05 13:06 52.03193 10.30950 19878 ft 441 kts 186°
2026-05-05 13:06 52.00133 10.30554 19877 ft 441 kts 186°
2026-05-05 13:06 51.97074 10.30152 19877 ft 441 kts 186°
2026-05-05 13:06 51.94024 10.29749 19877 ft 441 kts 186°
2026-05-05 13:07 51.90965 10.29345 19863 ft 440 kts 186°
2026-05-05 13:07 51.87918 10.28949 19871 ft 440 kts 186°
2026-05-05 13:07 51.84866 10.28554 19876 ft 439 kts 186°
2026-05-05 13:07 51.81824 10.28166 19869 ft 439 kts 186°
2026-05-05 13:08 51.78783 10.27774 19875 ft 438 kts 186°
2026-05-05 13:08 51.75748 10.27381 19874 ft 437 kts 186°
2026-05-05 13:08 51.72719 10.26989 19867 ft 437 kts 186°
2026-05-05 13:08 51.69650 10.26593 19866 ft 437 kts 186°
2026-05-05 13:09 51.66661 10.26206 19861 ft 436 kts 186°
2026-05-05 13:09 51.63599 10.25812 19855 ft 436 kts 186°
2026-05-05 13:09 51.60574 10.25423 19853 ft 436 kts 186°
2026-05-05 13:09 51.57555 10.25037 19845 ft 435 kts 186°
2026-05-05 13:10 51.54534 10.24652 19844 ft 435 kts 186°
2026-05-05 13:10 51.51518 10.24268 19850 ft 435 kts 186°
2026-05-05 13:10 51.48496 10.23880 19850 ft 435 kts 186°
2026-05-05 13:10 51.45484 10.23493 19846 ft 435 kts 186°
2026-05-05 13:11 51.42506 10.23113 19842 ft 435 kts 186°
2026-05-05 13:11 51.39493 10.22728 19843 ft 434 kts 186°
2026-05-05 13:11 51.36434 10.22336 19667 ft 435 kts 186°
2026-05-05 13:11 51.33466 10.21959 19420 ft 432 kts 185°
2026-05-05 13:12 51.30471 10.21699 19178 ft 431 kts 184°
2026-05-05 13:12 51.27436 10.21594 18930 ft 430 kts 182°
2026-05-05 13:12 51.24452 10.21583 18689 ft 428 kts 181°
2026-05-05 13:12 51.21476 10.21602 18456 ft 427 kts 181°
2026-05-05 13:13 51.18506 10.21614 18222 ft 426 kts 181°
2026-05-05 13:13 51.15551 10.21601 17964 ft 424 kts 182°
2026-05-05 13:13 51.12602 10.21559 17694 ft 423 kts 182°
2026-05-05 13:13 51.09668 10.21502 17428 ft 420 kts 182°
2026-05-05 13:14 51.06746 10.21439 17160 ft 419 kts 182°
2026-05-05 13:14 51.03833 10.21375 16894 ft 417 kts 182°
2026-05-05 13:14 51.00938 10.21315 16635 ft 416 kts 182°
2026-05-05 13:14 50.98045 10.21259 16378 ft 415 kts 182°
2026-05-05 13:15 50.95163 10.21205 16123 ft 414 kts 182°
2026-05-05 13:15 50.92289 10.21156 15871 ft 412 kts 181°
2026-05-05 13:15 50.89423 10.21109 15623 ft 411 kts 181°
2026-05-05 13:15 50.86570 10.21001 15376 ft 409 kts 186°
2026-05-05 13:16 50.83814 10.20026 15122 ft 407 kts 200°
2026-05-05 13:16 50.81276 10.18049 14877 ft 406 kts 212°
2026-05-05 13:16 50.79038 10.15318 14634 ft 406 kts 222°
2026-05-05 13:16 50.77157 10.11993 14388 ft 407 kts 232°
2026-05-05 13:17 50.75688 10.08175 14146 ft 407 kts 242°
2026-05-05 13:17 50.74403 10.04196 13905 ft 407 kts 242°
2026-05-05 13:17 50.73124 10.00211 13685 ft 406 kts 242°
2026-05-05 13:17 50.71852 9.96235 13415 ft 405 kts 242°
2026-05-05 13:18 50.70584 9.92276 13139 ft 404 kts 242°
2026-05-05 13:18 50.69317 9.88336 12880 ft 402 kts 242°
2026-05-05 13:18 50.68053 9.84415 12618 ft 401 kts 242°
2026-05-05 13:18 50.66793 9.80513 12368 ft 399 kts 242°
2026-05-05 13:19 50.65419 9.76732 12105 ft 396 kts 232°
2026-05-05 13:19 50.63499 9.73679 11853 ft 393 kts 216°
2026-05-05 13:19 50.61160 9.71470 11597 ft 391 kts 208°
2026-05-05 13:19 50.58777 9.69416 11346 ft 390 kts 208°
2026-05-05 13:20 50.56393 9.67384 11093 ft 389 kts 208°
2026-05-05 13:20 50.54026 9.65375 10842 ft 380 kts 208°
2026-05-05 13:20 50.51752 9.63443 10589 ft 364 kts 208°
2026-05-05 13:20 50.49573 9.61589 10355 ft 349 kts 208°
2026-05-05 13:21 50.47476 9.59807 10120 ft 336 kts 207°
2026-05-05 13:21 50.45456 9.58088 9878 ft 325 kts 208°
2026-05-05 13:21 50.43504 9.56428 9702 ft 312 kts 207°
2026-05-05 13:21 50.41637 9.54838 9566 ft 299 kts 207°
2026-05-05 13:22 50.39850 9.53320 9435 ft 286 kts 207°
2026-05-05 13:22 50.38131 9.51866 9300 ft 275 kts 207°
2026-05-05 13:22 50.36476 9.50465 9166 ft 265 kts 207°
2026-05-05 13:22 50.34887 9.49119 9043 ft 255 kts 207°
2026-05-05 13:23 50.33355 9.47822 8902 ft 247 kts 207°
2026-05-05 13:23 50.31853 9.46552 8778 ft 245 kts 207°
2026-05-05 13:23 50.30339 9.45271 8638 ft 244 kts 207°
2026-05-05 13:23 50.28847 9.44013 8509 ft 244 kts 207°
2026-05-05 13:24 50.27386 9.42666 8380 ft 244 kts 215°
2026-05-05 13:24 50.26094 9.40964 8253 ft 244 kts 224°
2026-05-05 13:24 50.25008 9.38930 8124 ft 244 kts 234°
2026-05-05 13:24 50.24159 9.36636 8000 ft 245 kts 244°
2026-05-05 13:25 50.23516 9.34039 7877 ft 274 kts 249°
2026-05-05 13:25 50.22864 9.31211 7743 ft 277 kts 249°
2026-05-05 13:25 50.22219 9.28415 7622 ft 277 kts 249°
2026-05-05 13:25 50.21566 9.25588 7493 ft 277 kts 249°
2026-05-05 13:26 50.20916 9.22768 7381 ft 276 kts 249°
2026-05-05 13:26 50.20256 9.19916 7220 ft 276 kts 249°
2026-05-05 13:26 50.19603 9.17102 6940 ft 275 kts 249°
2026-05-05 13:26 50.18956 9.14309 6765 ft 274 kts 249°
2026-05-05 13:27 50.18305 9.11512 6639 ft 274 kts 249°
2026-05-05 13:27 50.17651 9.08726 6519 ft 274 kts 248°
2026-05-05 13:27 50.16986 9.05948 6395 ft 273 kts 248°
2026-05-05 13:27 50.16334 9.03169 6278 ft 273 kts 249°
2026-05-05 13:28 50.15688 9.00394 6158 ft 272 kts 249°
2026-05-05 13:28 50.15049 8.97658 6117 ft 258 kts 249°
2026-05-05 13:28 50.14652 8.95960 6071 ft 246 kts 249°
2026-05-05 13:28 50.14077 8.93506 5783 ft 238 kts 249°
2026-05-05 13:29 50.13518 8.91123 5529 ft 228 kts 248°
2026-05-05 13:29 50.12976 8.88818 5347 ft 226 kts 248°
2026-05-05 13:29 50.12432 8.86505 5054 ft 224 kts 249°
2026-05-05 13:29 50.11891 8.84205 4755 ft 227 kts 249°
2026-05-05 13:30 50.11399 8.82129 4465 ft 226 kts 249°
2026-05-05 13:30 50.10880 8.79920 4134 ft 209 kts 249°
2026-05-05 13:30 50.10416 8.77946 3860 ft 189 kts 249°
2026-05-05 13:30 50.09984 8.76115 3593 ft 172 kts 249°
2026-05-05 13:31 50.09583 8.74419 3375 ft 164 kts 249°
2026-05-05 13:31 50.09197 8.72790 3147 ft 158 kts 249°
2026-05-05 13:31 50.08824 8.71213 2931 ft 153 kts 249°
2026-05-05 13:31 50.08458 8.69673 2718 ft 150 kts 249°
2026-05-05 13:32 50.08100 8.68158 2509 ft 148 kts 249°
2026-05-05 13:32 50.07743 8.66656 2294 ft 149 kts 249°
2026-05-05 13:32 50.07380 8.65125 2080 ft 148 kts 249°
2026-05-05 13:32 50.07023 8.63630 1876 ft 147 kts 249°
2026-05-05 13:33 50.06673 8.62149 1665 ft 146 kts 249°
2026-05-05 13:33 50.06326 8.60672 1458 ft 146 kts 252°
2026-05-05 13:33 50.05989 8.59182 1244 ft 147 kts 248°
2026-05-05 13:33 50.05622 8.57695 1031 ft 147 kts 249°
2026-05-05 13:34 50.05267 8.56224 810 ft 146 kts 248°
2026-05-05 13:34 50.04848 8.54605 573 ft 141 kts 244°
2026-05-05 13:34 50.04549 8.53312 408 ft 144 kts 248°
2026-05-05 13:34 50.04193 8.51765 334 ft 128 kts 249°
2026-05-05 13:35 50.03967 8.50796 325 ft 81 kts 248°
2026-05-05 13:35 50.03853 8.50426 321 ft 22 kts 231°
2026-05-05 13:35 50.03797 8.50332 320 ft 3 kts 225°
2026-05-05 13:35 50.03759 8.50276 319 ft 20 kts 222°
2026-05-05 13:36 50.03677 8.50187 321 ft 4 kts 193°
2026-05-05 13:36 50.03653 8.50182 323 ft 18 kts 190°
2026-05-05 13:36 50.03586 8.50112 322 ft 0 kts 225°
2026-05-05 13:37 50.04533 8.56584 363 ft 0 kts 115°